sat.trackr.live / text

‹ back to catalog

STARLINK-11708 [DTC]

NORAD 64238 · 2025-119F

PAYLOAD ACTIVE UNKNOWN

§ Identity

Operator
Country
US
Launch date
2025-06-03
Launch site
AFETR
Launch vehicle
Mass (kg)
RCS (m²)

Purposes: comms

External: N2YO · Heavens-Above · Gunter

§ Orbital elements

Epoch: 2026-05-25T04:46:39.380160Z

Period
91.67 min
Inclination
43.0006°
Eccentricity
0.0001453
Mean motion
15.70914341 rev/d
Perigee alt
355.3 km
Apogee alt
357.3 km
Semi-major
6,734.4 km
B*
1.4381e-3
RAAN
108.2986°
Arg perigee
265.9325°
Mean anomaly
94.1376°
Rev number
5,727

§ Raw data

STARLINK-11708 [DTC]1 64238U 25119F   26145.19906690  .00188920  00000+0  14381-2 0  99952 64238  43.0006 108.2986 0001453 265.9325  94.1376 15.70914341 57273

JSON: /api/v1/satellites/64238 · /tle

For live sub-satellite position, see the globe view (requires WebGL).

§ Visibility from observer

Set your observer location to see the next 7 days of passes ≥ 10°. The values pass through the URL so the page stays shareable.

No JS? Fill the form by hand. The geolocation button needs JavaScript.